Regional Weather Roundup
Issued by NWS

Home | Current Version | Previous Version | Text Only | Print | Product List | Glossary Off
Versions: 1 2 3 4 5 6 7 8 9 10 11 12 13 14 15 16 17 18 19 20 21 22 23 24 25 26 27 28 29 30 31 32 33 34 35 36 37 38 39 40 41 42 43 44 45 46 47 48 49 50

000
ASUS43 KMKX 101821
RWRWI

WISCONSIN REGIONAL WEATHER ROUNDUP
NATIONAL WEATHER SERVICE MILWAUKEE/SULLIVAN WI
1200 PM CST WED FEB 10 2016

NOTE: "FAIR" INDICATES FEW OR NO CLOUDS BELOW 12,000 FEET WITH NO
SIGNIFICANT WEATHER AND/OR OBSTRUCTIONS TO VISIBILITY.

WIZ001-002-006>008-014>016-023>028-101900-
NORTHWEST WISCONSIN

CITY           SKY/WX    TMP DP  RH WIND       PRES   REMARKS
SUPERIOR ARPT  CLOUDY     5  -4  64 NW3       30.16F
6HR MIN TEMP:  -9; 6HR MAX TEMP:   5;

ASHLAND        CLOUDY     8  -2  63 N13       30.12S WCI  -8
6HR MIN TEMP:   3; 6HR MAX TEMP:   8; 6HR PCP: TRACE;

HAYWARD        CLOUDY     6  -4  63 VRB3      30.08S
6HR MIN TEMP:   1; 6HR MAX TEMP:   6; 6HR PCP: TRACE;

SIREN          SUNNY      4  -5  65 N6        30.12F WCI  -6
6HR MIN TEMP: -14; 6HR MAX TEMP:   5;

CUMBERLAND     CLOUDY     3  -6  66 N7        30.07F WCI  -9
RICE LAKE      CLOUDY     5  -4  67 W6        30.10F WCI  -6
6HR MIN TEMP:  -4; 6HR MAX TEMP:   5;

CHETEK         CLOUDY     5  -4  66 W5        30.09F WCI  -4
6HR MIN TEMP:  -4; 6HR MAX TEMP:   6;

LADYSMITH      PTSUNNY   10  -4  53 N8        30.06F WCI  -2
6HR MIN TEMP:   2; 6HR MAX TEMP:   9;

EAU CLAIRE     MOSUNNY    6  -5  60 VRB7      30.09F WCI  -6
6HR MIN TEMP:  -4; 6HR MAX TEMP:   6;

MENOMONIE      SUNNY     12  -4  49 N6        30.12S WCI   3
6HR MIN TEMP:  -3; 6HR MAX TEMP:  12;

NEW RICHMOND   CLOUDY     4  -6  63 CALM      30.11F
6HR MIN TEMP:  -6; 6HR MAX TEMP:   4;

OSCEOLA        MOSUNNY    5  -5  62 NE5       30.16S WCI  -4
6HR MIN TEMP:  -3; 6HR MAX TEMP:   5;

$$

WIZ003>005-009-010-017-018-101900-
NORTH CENTRAL WISCONSIN

CITY           SKY/WX    TMP DP  RH WIND       PRES   REMARKS
MANITOWISH WTR CLOUDY     6  -5  61 N7G17     29.98S WCI  -6
6HR MIN TEMP:   2; 6HR MAX TEMP:   6;

ARBOR VITAE    CLOUDY     9  -3  59 N10G17    29.97F WCI  -5
6HR MIN TEMP:   4; 6HR MAX TEMP:   9;

WOODRUFF       CLOUDY     9  -3  59 N10G17    29.97F WCI  -5
6HR MIN TEMP:   4; 6HR MAX TEMP:   9;

RHINELANDER    PTSUNNY    8  -6  52 NE10      29.97S WCI  -6
6HR MIN TEMP:   4; 6HR MAX TEMP:   8; 6HR PCP: TRACE;

EAGLE RIVER    CLOUDY     6  -7  55 N8        29.96S WCI  -7
LAND O LAKES   LGT SNOW   6  -3  67 N9G16     29.97S WCI  -8
6HR MIN TEMP:   2; 6HR MAX TEMP:   6;

PHILLIPS       CLOUDY     6  -4  63 N8        30.01S WCI  -7
6HR MIN TEMP:  -2; 6HR MAX TEMP:   6;

TOMAHAWK       PTSUNNY    8  -5  56 N6G16     30.00S WCI  -2
6HR MIN TEMP:   2; 6HR MAX TEMP:   8;

MEDFORD        CLOUDY     7  -4  61 N3        30.00F
6HR MIN TEMP:  -4; 6HR MAX TEMP:   7;

MERRILL        CLOUDY     9  -4  55 N7G16     30.01S WCI  -2
6HR MIN TEMP:   4; 6HR MAX TEMP:   9;

$$

WIZ029-030-035-036-043>047-101900-
CENTRAL WISCONSIN

CITY           SKY/WX    TMP DP  RH WIND       PRES   REMARKS
WAUSAU         PTSUNNY   10  -4  53 N9G20     29.99F WCI  -3
6HR MIN TEMP:   6; 6HR MAX TEMP:  11;

MOSINEE        PTSUNNY    9  -2  61 N6        30.01F WCI  -1
MARSHFIELD     PTSUNNY    9  -4  55 N12       30.01S WCI  -6
6HR MIN TEMP:  -2; 6HR MAX TEMP:   8;

STEVENS POINT  CLOUDY     8  -5  57 N7        30.02F WCI  -4
6HR MIN TEMP:   5; 6HR MAX TEMP:   8;

WAUPACA        MOSUNNY   16  -4  41 NW9       30.02F WCI   4
6HR MIN TEMP:  10; 6HR MAX TEMP:  16;

WAUTOMA        PTSUNNY   10  -2  56 NW10G17   30.04S WCI  -3
6HR MIN TEMP:   5; 6HR MAX TEMP:  12; 6HR PCP: TRACE;

WISC RAPIDS    MIX PCPN   9  -4  55 N9        30.04F WCI  -4
6HR MIN TEMP:   4; 6HR MAX TEMP:  10; 6HR PCP: TRACE;

CAMP DOUGLAS   MOSUNNY   10   0  61 W10       30.05F WCI  -3
$$

WIZ011>013-019>022-031-037>040-048>050-101900-
NORTHEAST WISCONSIN

CITY           SKY/WX    TMP DP  RH WIND       PRES   REMARKS
ANTIGO         MOSUNNY    7  -5  57 N8        29.96F WCI  -6
6HR MIN TEMP:   3; 6HR MAX TEMP:   7;

SHAWANO        MOSUNNY   14  -4  43 N10G17    30.02S WCI   2
6HR MIN TEMP:  10; 6HR MAX TEMP:  14;

OCONTO         SUNNY     11  -5  48 NW12      30.01F WCI  -3
6HR MIN TEMP:   6; 6HR MAX TEMP:  11;

STURGEON BAY   SUNNY     12  -6  44 NW15      29.99F WCI  -4
6HR MIN TEMP:   5; 6HR MAX TEMP:  10;

GREEN BAY      SUNNY     11  -4  51 N14G24    30.01F WCI  -5
6HR MIN TEMP:   1; 6HR MAX TEMP:  11;

MANITOWOC      SUNNY     14   0  53 NW14      30.00F WCI  -1
6HR MIN TEMP:   6; 6HR MAX TEMP:  14;

APPLETON       MOSUNNY   10  -8  44 NW17      30.00R WCI  -7
CLINTONVILLE   MOSUNNY   14  -4  44 N9        30.02S WCI   2
OSHKOSH        MOSUNNY   11  -3  53 NW10      30.01F WCI  -3
6HR MIN TEMP:   8; 6HR MAX TEMP:  12;

$$

WIZ032>034-041-042-053>061-101900-
SOUTHWEST WISCONSIN

CITY           SKY/WX    TMP DP  RH WIND       PRES   REMARKS
LA CROSSE      SUNNY      8  -3  61 NW6       30.11F WCI  -2
6HR MIN TEMP:  -1; 6HR MAX TEMP:   8;

SPARTA         SUNNY     10  -2  57 N8        30.08F WCI  -2
6HR MIN TEMP: -13; 6HR MAX TEMP:  10;

VIROQUA        SUNNY      8  -3  61 NW7       30.03F WCI  -4
6HR MIN TEMP:  -4; 6HR MAX TEMP:   8;

BOSCOBEL       MOSUNNY   14  -3  47 N5        30.09F WCI   6
6HR MIN TEMP:  -6; 6HR MAX TEMP:  14;

PRAIRIE DU CHI CLOUDY    11  -4  51 CALM      30.09F
6HR MIN TEMP:   1; 6HR MAX TEMP:  11;

PLATTEVILLE    MOSUNNY   11  -1  59 NW8       30.05F WCI  -1
6HR MIN TEMP:   1; 6HR MAX TEMP:  11;

$$

WIZ056-057-062-063-064-067-068-101900-
SOUTH CENTRAL WISCONSIN

CITY           SKY/WX    TMP DP  RH WIND       PRES   REMARKS
REEDSBURG      MOSUNNY   10  -2  57 NW12      30.05F WCI  -4
6HR MIN TEMP:   0; 6HR MAX TEMP:  10;

BARABOO/DELLS  SUNNY     10  -3  54 NW8       30.03F WCI  -1
6HR MIN TEMP:  -1; 6HR MAX TEMP:  10;

LONE ROCK      NOT AVBL
MINERAL POINT  SUNNY     12  -2  52 NW8       30.02F WCI   1
MADISON        MOSUNNY   10  -2  58 N12       30.03F WCI  -5
6HR MIN TEMP:   3; 6HR MAX TEMP:  10;

MIDDLETON      MOSUNNY   13   0  55 NW7       30.04F WCI   3
6HR MIN TEMP:   3; 6HR MAX TEMP:  13;

WATERTOWN      CLOUDY    12   1  60 NW7G18    30.02F WCI   2
6HR MIN TEMP:   8; 6HR MAX TEMP:  13;

MONROE         SUNNY     14   1  57 NW9       30.01F WCI   2
JANESVILLE     PTSUNNY   16   3  57 NW13G18   30.03F WCI   2
$$

WIZ051-052-058>065-066-070>072-101900-
SOUTHEAST WISCONSIN

CITY           SKY/WX    TMP DP  RH WIND       PRES   REMARKS
MILWAUKEE      MOSUNNY   13  -2  51 NW12      30.01F WCI  -1
6HR MIN TEMP:   9; 6HR MAX TEMP:  14;

WAUKESHA       CLOUDY    10  -2  56 NW10      30.01F WCI  -3
MILWAUKEE/TIMM MOSUNNY   12  -4  48 NW10      30.02F WCI  -1
RACINE         CLOUDY    15   0  51 NW14      30.02F WCI   0
6HR MIN TEMP:   7; 6HR MAX TEMP:  15;

BURLINGTON     CLOUDY    14   0  52 W7        30.00F WCI   4
6HR MIN TEMP:   3; 6HR MAX TEMP:  13;

KENOSHA        CLOUDY    13   2  61 NW8       30.01F WCI   2
6HR MIN TEMP:   8; 6HR MAX TEMP:  14; 6HR PCP: TRACE;

FOND DU LAC    CLOUDY    11  -3  53 N14       30.01F WCI  -5
6HR MIN TEMP:   9; 6HR MAX TEMP:  12;

SHEBOYGAN      SUNNY     12  -3  51 NW10      29.99F WCI  -1
6HR MIN TEMP:   6; 6HR MAX TEMP:  12;

WEST BEND      PTSUNNY   12  -2  52 NW13      30.00S WCI  -3
JUNEAU         CLOUDY    10   0  62 W7        30.02S WCI  -1
6HR MIN TEMP:   8; 6HR MAX TEMP:  10;

$$

LSZ147-162-101900-
LAKE SUPERIOR

STATION/POSITION TIME  TEMP    WIND        PRES    WAVE
                       AIR SEA DIR/SP/G            HT/PER
                 (UTC) (F)     (DEG/KT/KT) (MB)    (FT/S)
DEVILS ISLAND    1800    8     330/ 10/ 13 1021.9F
SAXON HARBOR     1740   10                 1019.0S
$$

LMZ867-665-643>646-101900-
LAKE MICHIGAN

STATION/POSITION TIME  TEMP    WIND        PRES    WAVE
                       AIR SEA DIR/SP/G            HT/PER
                 (UTC) (F)     (DEG/KT/KT) (MB)    (FT/S)
CHAMBERS ISLAND  1700   13     310/ 15/ 20 1015.2
ALGOMA LAKESHORE 1711          340/ 11/ 16   N/A
KEWAUNEE LAKESHO 1700   11     330/ 16/ 23 1015.3R
SHEBOYGAN LAKC1F1C2F2C3F3C4F4C5F5C6F6C7F7C8M1C9M2Ca!


USA.gov is the U.S. government's official web portal to all federal, state and local government web resources and services.